GLOBAL-7 (46088 NORAD) Tracking and Keplerian Element Data

This shows tracking and keplerian element data for the satellite.

Feedback or suggestion? Click here.




ElementValue
Catalog46088
NameGLOBAL-7
Epoch Orbit2270
Epoch Day336.59060373
Epoch Year2020
RAAN87.8999
Inclination53.0071
Eccentricity0.000489
Argument of Perigee70.0724
Mean Anonmoly290.0812
Mean Motion15.546071
Decay Rate0.00014157
L11 46088U 20055BP 20336.59060373 .00014157 00000-0 21712-3 0 9999
L22 46088 53.0071 87.8999 0004890 70.0724 290.0812 15.54607100 22707

Live tracking and technical data element details for GLOBAL-7 (NORAD 46088). GLOBAL-7 can be tracked NOW for your location showing map with azimuth and elevation plus other details from your city location.

Track the satellite on the map from your city or location and see movement details for azimuth, elevation, latitude, longitude, range, height, and movement on the map or in text.







IsCatalogInMostPopularTable: catalog: 46088, numindb: 21
Update: records affected: 1



GetName: 46088 GLOBAL-7

Hit Count: updated at: Wed, 02 Dec 2020 19:24:55 GMT